Regional Weather Roundup
Issued by NWS New Orleans/Baton Rouge, LA

Home | Current Version | Previous Version | Text Only | Print | Product List | Glossary On
Versions: 1 2 3 4 5 6 7 8 9 10 11 12 13 14 15 16 17 18 19 20 21 22 23 24 25 26 27 28 29 30 31 32 33 34 35 36 37 38 39 40 41 42 43 44 45 46 47 48 49 50
567
ASUS44 KLIX 221201
RWRLIX
NEW ORLEANS REGIONAL WEATHER ROUNDUP
NATIONAL WEATHER SERVICE NEW ORLEANS LA
600 AM CST MON DEC 22 2014

NOTE: "FAIR" INDICATES FEW OR NO CLOUDS BELOW 12,000 FEET WITH NO
      SIGNIFICANT WEATHER AND/OR OBSTRUCTIONS TO VISIBILITY.
      SKY/WX - SKY CONDITION AND SIGNIFICANT WEATHER.
      TMP - AIR TEMPERATURE.     DP    - DEWPOINT TEMPERATURE.
      RH  - RELATIVE HUMIDITY.   PRES  - PRESSURE.
      HI  - HEAT INDEX.          WCI   - WIND CHILL INDEX.

*  THESE STATIONS ARE NOT NWS OR FAA STATIONS AND ARE NOT UNDER
   NWS QUALITY CONTROL.

LAZ038-040-048-061>063-065>067-069-221300-
SOUTHEAST LOUISIANA

CITY           SKY/WX    TMP DP  RH WIND       PRES   REMARKS
N.O. AUDUBON     N/A     60  60 100 MISG        N/A
6HR MIN TEMP:  58; 6HR MAX TEMP:  60; 6HR PCP:  0.02;

N.O. INTL ARPT MOCLDY    58  56  93 E3        29.85F FOG
6HR MIN TEMP:  57; 6HR MAX TEMP:  58;

N.O. LAKEFRONT LGT RAIN  59  56  89 E8        29.86F FOG
6HR MIN TEMP:  58; 6HR MAX TEMP:  59; 6HR PCP:  0.02;

N.O. DOWNTOWN* CLOUDY    59  55  88 E8        29.86F
6HR MIN TEMP:  57; 6HR MAX TEMP:  59; 6HR PCP:  0.04;

SLIDELL        CLOUDY    58  56  93 CALM      29.86R FOG
6HR MIN TEMP:  55; 6HR MAX TEMP:  58; 6HR PCP: TRACE;

BATON ROUGE    FOG       54  53  97 CALM      29.85S VSB 1/4
6HR MIN TEMP:  52; 6HR MAX TEMP:  54;

BOOTHVILLE     CLOUDY    63  62  97 SE5       29.86S
6HR MIN TEMP:  57; 6HR MAX TEMP:  63; 6HR PCP:  0.02;

BELLE CHASSE   CLOUDY    59  58  96 NE5       29.85F FOG
6HR MIN TEMP:  58; 6HR MAX TEMP:  60; 6HR PCP:  0.12;

BOGALUSA*      FOG       57  55  91 SE3       29.88S VSB 1/4
6HR MIN TEMP:  55; 6HR MAX TEMP:  57;

GALLIANO*      NOT AVBL
NEW ROADS*     NOT AVBL
GONZALES*      NOT AVBL
HAMMOND*       NOT AVBL
HOUMA*         CLOUDY    57  57 100 CALM      29.84S
PORT FOURCHON* CLOUDY    63  63 100 E7        29.86F FOG

$$

MSZ070-080>082-221300-
SOUTHERN MISSISSIPPI

CITY           SKY/WX    TMP DP  RH WIND       PRES   REMARKS
MCCOMB         FOG       54  53  97 SE3       29.86R VSB 1/4
6HR MIN TEMP:  52; 6HR MAX TEMP:  54; 6HR PCP:  0.01;

GULFPORT       LGT RAIN  58  57  97 E7        29.86F
6HR MIN TEMP:  55; 6HR MAX TEMP:  59; 6HR PCP: TRACE;

BILOXI         CLOUDY    58  58 100 E9        29.88S
6HR MIN TEMP:  56; 6HR MAX TEMP:  58; 6HR PCP:  0.01;

PASCAGOULA     CLOUDY    58  57  97 E3        29.89R
6HR MIN TEMP:  56; 6HR MAX TEMP:  59; 6HR PCP: TRACE;


$$

COASTAL OBSERVATIONS
LAKE AND NEARSHORE STATIONS

STATION/POSITION TIME  TEMP    WIND        PRES    WAVE
                       AIR SEA DIR/SP/G            HT/PER
                 (UTC) (F)     (DEG/KT/KT) (MB)    (FT/S)
PASCAGOULA       1100   59      70/  8/ 13 1011.3
WAVELAND YACHT   1100   58      60/  6/  8 1010.3
GRAND ISLE       1100   62 60  100/  3/  4 1011.0
SOUTHWEST PASS   1100   64                 1011.2
NEW CANAL        1100   58 56   CALM  /  4 1011.3
SHELL BEACH      1100   60 57  110/  5/  5 1011.1

OFFSHORE STATIONS

STATION/POSITION TIME  TEMP    WIND        PRES    WAVE
                       AIR SEA DIR/SP/G            HT/PER
                 (UTC) (F)     (DEG/KT/KT) (MB)    (FT/S)
64 S DAUPHIN ISL 1200   72 74  140/ 12/ 14 1010.9    3/ 4

$$




USA.gov is the U.S. government's official web portal to all federal, state and local government web resources and services.